Вернуться в каталог

YAOGAN-34

АктивенВоенныеLEO
NORAD 48340·PAYLOAD·🇨🇳 China

Запущен Apr 30, 2021 с Jiuquan Satellite Launch Center

Loading…

Ближайшие Пролёты (ближайшие 24 часа)

TLE

СвежийSource: Space-Track

Эпоха: Sep 14, 2026, 14:42 UTC

1 48340U 21037A   26257.61255282  .00000036  00000-0  21052-3 0  9997
2 48340  63.4018 276.6954 0048349 353.2134   6.8232 13.45437744264039

Отслеживайте YAOGAN-34 в реальном времени с AllMySat

Download on the App Store